Regional Weather Roundup
Issued by NWS Boston, MA

Current Version | Previous Version | Text Only | Print | Product List | Glossary Off
Versions: 1 2 3 4 5 6 7 8 9 10 11 12 13 14 15 16 17 18 19 20 21 22 23 24 25 26 27 28 29 30 31 32 33 34 35 36 37 38 39 40 41 42 43 44 45 46 47 48 49 50
000 ASUS41 KBOX 220510 RWRBOX REGIONAL WEATHER ROUNDUP NATIONAL WEATHER SERVICE BOSTON/NORTON MA 1200 AM EST TUE JAN 22 2019 NOTE: "FAIR" INDICATES FEW OR NO CLOUDS BELOW 12,000 FEET WITH NO SIGNIFICANT WEATHER AND/OR OBSTRUCTIONS TO VISIBILITY. MAZALL-220600- EASTERN MASSACHUSETTS CITY SKY/WX TMP DP RH WIND PRES REMARKS BOSTON FAIR 8 -10 43 W20G35 30.15R WCI -11 BEVERLY FAIR 6 -11 45 NW16G28 30.11R WCI -12 LAWRENCE FAIR 5 -12 45 W15G29 30.13R WCI -13 BEDFORD FAIR 5 -13 43 NW17G24 30.14R WCI -14 BLUE HILL N/A 1 -7 68 NW14G22 30.07R WCI -17 NORWOOD FAIR 7 -10 46 W12 30.17R WCI -8 MARSHFIELD FAIR 7 -6 56 W8G22 30.13R WCI -6 PLYMOUTH FAIR N/A N/A N/A W13G23 30.13R TAUNTON MOCLDY 6 -10 47 NW13G22 30.16R WCI -10 NEW BEDFORD FAIR 5 -8 55 NW10G22 30.16R WCI -10 $$ MAZALL-220600- CAPE COD AND THE ISLANDS CITY SKY/WX TMP DP RH WIND PRES REMARKS FALMOUTH NOT AVBL HYANNIS CLOUDY 7 -7 52 W17G28 30.10R WCI -12 CHATHAM SNOW 8 32 100 NW12G28 30.09R VSB 1/2 WCI -7 PROVINCETOWN FLURRIES 10 4 76 NW26G38 30.10R WCI -11 NANTUCKET FAIR 8 -5 55 NW28G43 30.12R WCI -14 MARTHAS VNYRD FAIR 7 -7 52 NW21G36 30.15R WCI -13 $$ MAZALL-220600- CENTRAL AND WESTERN MASSACHUSETTS CITY SKY/WX TMP DP RH WIND PRES REMARKS WORCESTER FAIR 0 -16 46 NW21G31 30.07R WCI -22 FITCHBURG FAIR 2 -16 42 NW16G22 30.15R WCI -18 ORANGE N/A 3 -17 39 N6 30.19R WCI -8 SPRINGFIELD FAIR 1 -15 45 NW10 30.24R WCI -15 WESTFIELD FAIR 3 -15 43 N10 30.26R WCI -12 NORTH ADAMS FAIR 0 -14 51 W12 30.29R WCI -17 PITTSFIELD FAIR 0 -14 51 W15G28 30.21R WCI -19 $$ RIZALL-220600- RHODE ISLAND CITY SKY/WX TMP DP RH WIND PRES REMARKS PROVIDENCE FAIR 5 -9 52 NW13 30.20R WCI -12 NEWPORT FAIR 6 -7 54 NW21G28 30.18R WCI -14 BLOCK ISLAND FAIR 8 -6 52 NW21G37 30.22R WCI -12 SMITHFIELD FAIR 1 -7 68 W10 30.15R WCI -15 WESTERLY NOT AVBL $$ CTZALL-220600- CONNECTICUT CITY SKY/WX TMP DP RH WIND PRES REMARKS BRADLEY INTL FAIR 5 -13 43 NW20G32 30.27R WCI -15 HARTFORD FAIR 8 -12 39 NW14G24 30.29R WCI -8 BRIDGEPORT FAIR 12 -3 51 NW13 30.33R WCI -3 DANBURY FAIR 9 -3 58 W12G18 30.30R WCI -6 GROTON FAIR 8 -11 41 NW13G29 30.25R WCI -8 NEW HAVEN FAIR 11 -1 58 NW10G18 30.31R WCI -3 CHESTER FAIR 7 -9 47 NW14G23 30.23R WCI -10 MERIDEN FAIR 8 -5 55 NW15G22 30.28R WCI -9 WILLIMANTIC FAIR 4 -9 55 W12G32 30.23R WCI -12 OXFORD FAIR 4 -3 73 VRB6G17 30.24R WCI -7 $$ MEZ002-015-021-024-NHZ003-005-008-011-012-014-VTZ005-008-220600- NORTHERN NEW ENGLAND CITY SKY/WX TMP DP RH WIND PRES REMARKS PORTLAND ME CLOUDY 5 -7 57 W12 30.03R WCI -11 BANGOR ME LGT SNOW 6 -2 69 NW15G21 29.87R BLWGSNOWWCI -12 CONCORD NH FAIR 2 -12 52 NW17G26 30.12R WCI -18 MANCHESTER NH FAIR 5 -12 45 NW22G30 30.12R WCI -16 NASHUA NH FAIR 3 -12 49 W18G24 30.15R WCI -17 PORTSMOUTH NH PTCLDY 4 -13 45 W16G28 30.07R WCI -15 JAFFREY NH FAIR 1 -15 47 VRB6G22 30.06S WCI -10 KEENE NH FAIR 2 -14 47 NW10G16 30.20 WCI -14 BURLINGTON VT FAIR 1 -11 57 NW15 30.34R WCI -18 MT. WASHINGTON BLWGSNOW -20 -20 100 NW104G115 N/A VSB 1/16WCI -66 $$ NYZ052-076-220600- EASTERN NEW YORK CITY SKY/WX TMP DP RH WIND PRES REMARKS ALBANY FAIR 5 -11 47 W18G26 30.38R WCI -15 NEW YORK CITY FAIR 15 2 56 NW21G31 30.40R WCI -2 $$ ANZALL-220600- MARINE OBSERVATIONS STATION/POSITION TIME TEMP WIND PRES VSBY WAVE AIR SEA DIR/SP/G HT/PER (UTC) (F) (DEG/KT/KT) (MB) (MI) (FT/S) BOSTON BUOY 0450 10 41 300/ 25/ 37 1019.0R 6/ 5 BUZZARDS BAY 0400 8 310/ 31/ 41 1021.5R NANTUCKET SOUND 0450 10 310/ 25/ 35 1020.3R 4/ 4 MASS BAY-STELLWA 0404 10 40 310/ 25/ 39 1016.7R 1 5/8 4/ 4 ISLE OF SHOALS 0400 6 300/ 27/ 32 1016.9R S OF BLOCK IS 0430 44 N/A 11/ 7 $$ ......................KEY......................... SKY/WX - SKY CONDITION/PRESENT WEATHER TMP - TEMPERATURE IN FAHRENHEIT DWPT - DEWPOINT IN FAHRENHEIT RH - RELATIVE HUMIDITY IN PERCENT WIND - DIRECTION AND SPEED IN MPH PRES - MEAN SEA LEVEL PRESSURE IN INCHES OF HG WCI - WIND CHILL INDEX VSB - VISIBILITY IN MILES HX - HEAT INDEX TC - TEMPERATURE IN CELSIUS VRB - VARIABLE WIND DIRECTION N/A - NOT AVAILABLE

USA.gov is the U.S. government's official web portal to all federal, state and local government web resources and services.